TimeEDT,TemperatureF,Dew PointF,Humidity,Sea Level PressureIn,VisibilityMPH,Wind Direction,Wind SpeedMPH,Gust SpeedMPH,PrecipitationIn,Events,Conditions,WindDirDegrees,DateUTC
12:15 AM,57.2,57.2,100,29.76,6.0,South,19.6,32.2,N/A,,Overcast,190,2013-04-20 04:15:00
12:35 AM,57.2,57.2,100,29.75,7.0,South,21.9,32.2,N/A,,Overcast,190,2013-04-20 04:35:00
12:55 AM,57.2,57.2,100,29.74,5.0,South,20.7,32.2,N/A,,Overcast,190,2013-04-20 04:55:00
1:15 AM,59.0,57.2,94,29.74,5.0,SSW,26.5,35.7,N/A,,Overcast,200,2013-04-20 05:15:00
1:35 AM,59.0,57.2,94,29.74,8.0,SW,20.7,38.0,0.01,,Overcast,220,2013-04-20 05:35:00
1:55 AM,57.2,55.4,94,29.74,5.0,SSW,18.4,24.2,0.01,,Overcast,210,2013-04-20 05:55:00
2:35 AM,57.2,55.4,94,29.71,8.0,SW,20.7,28.8,0.02,,Overcast,220,2013-04-20 06:35:00
2:55 AM,55.4,55.4,100,29.70,4.0,SW,25.3,33.4,0.02,,Overcast,220,2013-04-20 06:55:00
3:15 AM,57.2,55.4,94,29.69,8.0,SW,19.6,32.2,N/A,,Overcast,220,2013-04-20 07:15:00
3:35 AM,55.4,53.6,94,29.69,7.0,SSW,20.7,27.6,N/A,,Overcast,200,2013-04-20 07:35:00
3:55 AM,55.4,55.4,100,29.68,9.0,SSW,19.6,28.8,0.01,,Overcast,200,2013-04-20 07:55:00
4:15 AM,55.4,53.6,94,29.70,10.0,SSW,19.6,27.6,N/A,,Overcast,200,2013-04-20 08:15:00
4:35 AM,55.4,55.4,100,29.69,8.0,SSW,20.7,25.3,0.01,,Overcast,200,2013-04-20 08:35:00
4:55 AM,55.4,53.6,94,29.69,9.0,SSW,19.6,27.6,0.02,,Overcast,200,2013-04-20 08:55:00
5:15 AM,55.4,53.6,94,29.69,8.0,SSW,13.8,25.3,0.01,,Overcast,200,2013-04-20 09:15:00
5:35 AM,53.6,53.6,100,29.70,5.0,SW,12.7,20.7,0.01,,Overcast,220,2013-04-20 09:35:00
5:55 AM,53.6,51.8,94,29.70,8.0,SW,16.1,-,0.02,,Overcast,230,2013-04-20 09:55:00
6:15 AM,51.8,51.8,100,29.70,5.0,SW,15.0,20.7,0.01,,Overcast,220,2013-04-20 10:15:00
6:35 AM,51.8,51.8,100,29.71,7.0,SW,20.7,26.5,0.02,,Overcast,230,2013-04-20 10:35:00
6:55 AM,53.6,51.8,94,29.72,9.0,SW,16.1,24.2,0.03,,Overcast,220,2013-04-20 10:55:00
7:15 AM,51.8,51.8,100,29.72,8.0,SW,17.3,23.0,0.01,,Overcast,220,2013-04-20 11:15:00
7:35 AM,51.8,51.8,100,29.74,6.0,SW,17.3,23.0,0.06,,Overcast,230,2013-04-20 11:35:00
7:55 AM,51.8,48.2,88,29.77,8.0,NW,8.1,-,0.11,,Mostly Cloudy,320,2013-04-20 11:55:00
8:15 AM,51.8,46.4,82,29.79,7.0,WNW,12.7,-,0.05,,Overcast,300,2013-04-20 12:15:00
8:35 AM,50.0,46.4,87,29.79,5.0,NW,11.5,17.3,0.10,,Overcast,320,2013-04-20 12:35:00
8:55 AM,48.2,46.4,93,29.80,5.0,NW,12.7,18.4,0.13,,Overcast,320,2013-04-20 12:55:00
9:15 AM,48.2,46.4,93,29.80,7.0,NW,10.4,-,0.03,,Overcast,320,2013-04-20 13:15:00
9:35 AM,48.2,46.4,93,29.82,9.0,NW,11.5,-,0.04,,Overcast,310,2013-04-20 13:35:00
9:55 AM,48.2,44.6,87,29.84,10.0,WNW,10.4,-,0.05,,Overcast,300,2013-04-20 13:55:00
10:15 AM,48.2,42.8,82,29.86,10.0,WNW,11.5,-,0.01,,Overcast,300,2013-04-20 14:15:00
10:35 AM,48.2,42.8,82,29.87,10.0,WNW,12.7,-,0.01,,Overcast,290,2013-04-20 14:35:00
11:15 AM,48.2,42.8,82,29.90,10.0,West,9.2,-,N/A,,Overcast,260,2013-04-20 15:15:00
11:35 AM,50.0,44.6,82,29.89,10.0,West,8.1,-,N/A,,Overcast,260,2013-04-20 15:35:00
11:55 AM,51.8,44.6,76,29.89,10.0,West,6.9,-,N/A,,Overcast,260,2013-04-20 15:55:00
12:15 PM,51.8,44.6,76,29.89,10.0,SW,6.9,-,N/A,,Overcast,230,2013-04-20 16:15:00
12:35 PM,50.0,46.4,87,29.89,10.0,West,8.1,-,N/A,,Mostly Cloudy,260,2013-04-20 16:35:00
12:55 PM,51.8,44.6,76,29.90,10.0,WNW,9.2,-,N/A,,Clear,290,2013-04-20 16:55:00
1:15 PM,51.8,42.8,71,29.90,10.0,West,10.4,-,N/A,,Clear,270,2013-04-20 17:15:00
1:35 PM,51.8,42.8,71,29.90,10.0,WSW,8.1,-,N/A,,Clear,250,2013-04-20 17:35:00
1:55 PM,53.6,41.0,62,29.90,10.0,WSW,8.1,-,N/A,,Clear,240,2013-04-20 17:55:00
2:55 PM,53.6,41.0,62,29.91,10.0,SSW,9.2,-,N/A,,Clear,210,2013-04-20 18:55:00
3:15 PM,53.6,39.2,58,29.91,10.0,SSW,10.4,-,N/A,,Clear,200,2013-04-20 19:15:00
3:35 PM,53.6,41.0,62,29.92,10.0,South,6.9,-,N/A,,Clear,190,2013-04-20 19:35:00
3:55 PM,53.6,39.2,58,29.93,10.0,SSW,6.9,-,N/A,,Clear,200,2013-04-20 19:55:00
4:15 PM,53.6,41.0,62,29.93,10.0,SSW,12.7,16.1,N/A,,Clear,200,2013-04-20 20:15:00
4:35 PM,53.6,42.8,67,29.94,10.0,SSW,10.4,-,N/A,,Clear,210,2013-04-20 20:35:00
4:55 PM,51.8,41.0,67,29.95,10.0,SW,11.5,19.6,N/A,,Partly Cloudy,220,2013-04-20 20:55:00
5:15 PM,51.8,42.8,71,29.97,10.0,WSW,5.8,-,N/A,,Scattered Clouds,240,2013-04-20 21:15:00
6:15 PM,51.8,39.2,62,30.00,10.0,SW,6.9,-,N/A,,Scattered Clouds,230,2013-04-20 22:15:00
6:35 PM,50.0,41.0,71,30.01,10.0,SW,5.8,-,N/A,,Scattered Clouds,220,2013-04-20 22:35:00
6:55 PM,48.2,42.8,82,30.01,10.0,SW,6.9,-,N/A,,Scattered Clouds,230,2013-04-20 22:55:00
7:15 PM,48.2,42.8,82,30.02,10.0,SW,5.8,-,N/A,,Clear,230,2013-04-20 23:15:00
7:35 PM,46.4,42.8,87,30.03,10.0,SW,4.6,-,N/A,,Clear,220,2013-04-20 23:35:00
7:55 PM,46.4,42.8,87,30.04,10.0,Calm,Calm,-,N/A,,Clear,0,2013-04-20 23:55:00
8:15 PM,44.6,42.8,93,30.06,10.0,Calm,Calm,-,N/A,,Clear,0,2013-04-21 00:15:00
8:55 PM,42.8,39.2,87,30.10,10.0,Calm,Calm,-,N/A,,Clear,0,2013-04-21 00:55:00
9:15 PM,42.8,41.0,93,30.11,10.0,Calm,Calm,-,N/A,,Clear,0,2013-04-21 01:15:00
10:35 PM,48.2,35.6,62,30.15,10.0,NNW,10.4,-,N/A,,Clear,330,2013-04-21 02:35:00
10:55 PM,48.2,35.6,62,30.16,10.0,NW,12.7,18.4,N/A,,Clear,320,2013-04-21 02:55:00
11:35 PM,48.2,32.0,54,30.18,10.0,NW,15.0,21.9,N/A,,Clear,310,2013-04-21 03:35:00
11:55 PM,46.4,35.6,66,30.20,10.0,NW,11.5,-,N/A,,Clear,310,2013-04-21 03:55:00